Location: Gleizolles
(44.4833°N, 6.7667°E)
Time: 08:22:30
(UTC+00:00)

PCSat - Pass Details

Date: 07 December 2022
Orbit: 785 x 793 km, 67.0° (Epoch: 27 January)

Event Time Altitude Azimuth Distance (km) Brightness Sun altitude
Rises 16:19:47 0° 156° (SSE) 3,264 12.8 -5.0°
Reaches altitude 10° 16:23:31 10° 129° (SE) 2,344 11.8 -5.6°
Maximum altitude 16:25:55 13° 103° (ESE) 2,136 11.4 -5.9°
Drops below altitude 10° 16:28:19 10° 76° (ENE) 2,355 11.4 -6.3°
Enters shadow 16:29:19 - 67° (ENE) 2,551 11.5 -6.5°
